1173 visiteurs
Prévisions de votre ville :
Vigilance : 4 départements Mise à jour le 17/11/2018 à 06:01 - Voir la carte

Paris Roissy CDG (95380) le 17/11/2018 à 09:30 Choisir station

2°C 93 % ENE Vit. moyenne 17 kmh/h

Relevés météo quotidiens pour la station de :

UTC
S: Synop
M: Metar
Loc T°C
(°C)
Td
(°C)
HR
(%)
Vis
(km)
Néb
(octa)
Vent
(km/h)
Pression
(mb)
Précipitations
(mm)
Temps
              MOY
10 min
DIR RAF 1h MESURE VAR SUR 3h    
S 00 h 01h 13.4 7.6 68 /8 7 11 1019.1 +1.8/3h 0.0/1h -
S 01 h 02h 13.2 7.4 68 /8 11 22 1019.7 +1.7/3h 0.0/1h -
S 02 h 03h 12.7 6.5 66 /8 13 22 1019.9 +1.0/3h 0.0/1h -
S 03 h 04h 12.4 6.4 67 20 4/8 7 9 1019.5 +0.4/3h 0.0/3h
S 04 h 05h 12.3 7.0 70 /8 4 9 1019.6 -0.1/3h 0.0/1h -
S 05 h 06h 11.8 8.8 82 /8 2 9 1019.9 0.0/3h 0.0/1h -
S 06 h 07h 11.6 7.1 74 20 1/8 7 15 1020.1 +0.6/3h 0.0/3h
S 07 h 08h 12.6 7.7 72 /8 17 24 1020.0 +0.4/3h 0.0/1h -
S 08 h 09h 13.8 6.2 60 /8 13 28 1020.2 +0.3/3h 0.0/1h -
S 09 h 10h 14.9 5.9 55 25 5/8 7 19 1020.2 +0.2/3h 0.0/3h
S 10 h 11h 15.3 6.8 57 /8 11 26 1019.9 0.0/3h 0.0/1h -
S 11 h 12h 14.6 8.3 66 /8 15 30 1019.5 -0.6/3h 0.0/1h -
S 12 h 13h 14.9 9.7 71 20 4/8 13 28 1018.6 -1.6/3h 0.0/6h - 0.0/3h
S 13 h 14h 14.6 10.8 78 /8 7 15 1018.0 -1.9/3h 0.0/1h -
S 14 h 15h 14.6 11.7 83 /8 11 30 1017.3 -2.2/3h 0.0/1h -
S 15 h 16h 15.0 11.6 80 20 7/8 11 30 1016.7 -1.9/3h 0.0/3h
S 16 h 17h 15.9 10.9 72 /8 7 19 1015.8 -2.1/3h 0.0/1h -
S 17 h 18h 16.2 12.2 77 /8 30 48 1015.8 -1.4/3h 0.0/1h -
S 18 h 19h 16.4 13.7 84 20 7/8 20 52 1015.2 -1.4/3h 0.0/12h - 0.0/3h
S 19 h 20h 16.6 14.1 85 /8 19 35 1014.9 -0.9/3h 0.0/1h -
S 20 h 21h 16.8 14.3 85 /8 19 33 1014.5 -1.3/3h 0.0/1h -
S 21 h 22h 17.0 14.8 87 /8 30 69 1014.7 -0.5/3h 0.0/1h -
S 22 h 23h 16.9 14.9 88 /8 13 33 1014.6 -0.3/3h 0.0/1h -
S 23 h 00h 17.2 14.5 84 /8 19 30 1014.2 -0.3/3h 0.0/1h -
evolution des temperatures
cumul des precipitations
vent moyen et rafales
pression atmospherique

Un tiret (-) signifie que les données ne sont pas disponibles.

Passez la souris sur les pictos temps pour avoir plus de précisions. Passez les flèches sur l'icône de la direction du vent pour voir la direction précise en degrés.

Les données de l'heure en cours sont disponibles à partir de H+15 minutes.


S signifie station Synop, plus complète qu'une station Metar (M). Il y a +1h de différence entre l'heure UTC et l'heure légale en hiver et +2h en été.

Td est la mesure du point de rosée.

HR est l'humidité relative/p>

Vis est la visibilité

Néb est la nébulosité du ciel (couverture nuageuse) exprimée en octas (de 0/8 à 8/8).

Vent moy 10 min donne le vent moyen sur les 10 minutes qui précèdent le relevé.

Vent raf 1h donne la rafale maximale mesurée dans l'heure qui précède le relevé.


Les données les plus anciennes remontent à avril 2014.

Les données présentées sur cette page proviennent des stations météo officielles. Les relevés sont effectués aux normes en vigueur (anémomètre à 10m de haut, thermomètre sous abri normalisé à 2m du sol...)

Météo 60 décline toute responsabilité en cas d'absence de données, d'erreurs, de mauvaise utilisation ou interprétation et n'est pas habilité à fournir des certificats intempéries.